Temp
17 18 18 18 19 19 19 18 18 19 19 19 19 19 19 20 21 21 20 17 17 18 19 21 22 22 23 22 22 22 23 23 22 22 21 20 20 19 19 20 18 17 16 16 14
16 17 17 18 18 19 19 19 19 18 19 19 19 19 19 20 22 21 18 18 18 18 20 22 24 24 23 23 22 23 23 21 22 21 21 19 20 19 19 19 19 17 16 15 14
16 16 17 17 18 18 19 19 19 18 19 19 19 19 19 20 23 21 19 18 18 18 19 20 22 23 22 23 22 22 22 21 20 20 20 19 18 18 19 19 16 15 14 14 13
16 16 16 17 17 18 19 19 18 18 18 19 19 19 19 19 22 20 18 18 19 18 20 22 23 23 22 22 22 20 21 21 19 18 19 19 18 17 16 15 15 14 14 13 13
16 16 16 17 18 18 18 18 18 18 18 18 19 19 19 23 21 19 18 18 18 19 20 22 23 23 22 22 22 21 20 20 19 18 18 17 18 18 16 15 15 14 14 13 11
16 16 16 17 17 18 18 18 18 18 18 18 19 19 21 22 19 19 18 18 18 20 20 21 21 22 22 21 21 21 20 19 18 18 18 17 17 15 16 14 15 15 13 12 11
16 16 16 17 17 18 18 18 18 18 18 19 19 20 22 20 18 18 18 18 17 18 20 19 19 22 22 20 20 20 19 19 18 18 18 17 17 16 15 14 15 14 13 12 9
16 16 17 17 17 18 18 18 18 18 19 19 20 19 21 19 19 19 19 19 18 18 18 18 18 20 20 20 20 20 20 21 20 18 17 17 18 18 15 15 15 14 13 12 10
15 16 17 17 18 18 18 18 19 19 20 20 20 22 22 19 20 19 18 19 19 19 18 18 20 20 20 21 21 21 21 21 21 19 19 17 19 17 15 14 14 13 12 11 10
15 16 16 17 18 19 19 19 19 20 20 20 20 23 21 20 19 18 19 18 19 20 20 21 21 22 23 21 20 19 20 21 20 19 18 18 18 19 15 14 14 13 12 11 10
16 16 16 17 18 19 19 18 22 23 20 20 20 21 20 19 18 20 18 19 21 22 21 21 21 20 19 19 19 19 19 20 21 19 17 18 19 20 17 13 13 13 12 11 10
16 16 16 17 18 18 18 18 14 15 21 18 19 20 18 17 21 21 20 21 21 21 21 21 20 19 18 18 18 19 20 21 20 18 17 18 18 19 19 14 14 11 11 10 10
15 16 17 17 18 16 14 12 12 13 22 20 19 20 19 19 20 20 19 20 20 20 20 21 19 18 18 19 19 20 19 18 17 18 19 18 20 18 16 15 12 10 10 10 9
15 16 17 17 18 15 14 12 13 12 24 21 21 20 20 19 20 18 18 18 20 19 19 20 19 18 19 19 18 19 18 17 17 17 18 18 19 19 16 14 13 12 11 10 8
15 15 16 17 16 17 13 13 13 14 21 21 21 19 20 20 19 20 17 20 19 19 19 19 18 18 19 18 17 19 18 17 16 16 17 17 17 20 16 16 15 14 12 10 8
14 15 16 15 15 14 13 13 14 22 18 20 20 19 21 20 20 20 20 20 18 18 19 19 17 17 18 18 17 17 18 20 17 16 17 18 17 20 19 17 17 16 13 10 9
14 15 16 15 16 14 13 15 22 22 20 20 19 19 19 19 20 19 19 19 18 18 19 20 19 18 17 18 17 19 18 18 18 18 19 16 16 19 17 15 15 16 13 10 9
14 15 15 15 14 14 14 21 22 20 20 19 18 19 19 18 19 19 20 20 19 18 19 18 18 18 17 17 16 17 17 17 16 18 18 18 17 19 14 12 13 14 13 10 8
15 14 14 14 14 13 19 21 20 20 18 18 20 20 20 19 18 20 19 18 17 17 17 18 19 17 16 16 16 17 17 16 16 18 15 19 20 12 12 12 11 11 10 10 9
13 16 17 15 15 14 22 19 19 18 17 18 20 19 20 20 19 20 19 17 17 17 17 18 16 17 17 15 15 16 16 16 17 16 16 19 19 19 16 15 13 12 11 11 9
14 20 16 16 15 21 21 19 18 17 17 18 19 19 19 18 18 19 19 17 17 17 17 17 16 18 17 17 17 16 17 16 16 16 16 17 19 19 18 17 16 14 13 12 10
16 21 16 16 22 20 20 18 15 17 17 17 17 18 18 18 18 18 18 18 17 17 17 16 16 15 18 17 15 15 16 16 16 16 16 16 15 18 17 16 15 15 15 13 12
19 19 17 16 22 20 17 17 17 17 17 17 17 17 17 17 17 18 17 17 16 16 16 15 15 15 18 15 14 15 16 16 16 15 14 15 17 18 16 15 15 14 15 14 12
18 21 20 18 17 20 18 18 17 15 16 16 17 16 16 17 18 17 17 17 15 16 13 15 14 15 16 17 16 15 15 15 15 13 15 16 17 19 20 19 18 18 15 14 12
17 18 15 20 18 18 17 17 17 17 16 16 16 16 17 17 17 17 17 16 17 14 14 14 13 14 14 14 14 14 14 14 14 14 13 15 16 17 18 17 16 14 13 13 12
18 18 15 16 15 17 14 17 17 17 16 16 16 17 17 16 17 17 17 17 16 15 14 12 12 12 11 14 14 13 14 14 14 14 14 15 15 17 15 14 13 13 11 10 10
12 13 17 13 16 17 19 18 17 16 17 16 16 16 16 16 17 16 17 16 16 16 13 11 11 10 12 13 12 12 15 15 15 15 15 14 17 16 15 13 12 9 8 9 9
Height
835 831 828 825 822 818 814 812 810 810 809 809 809 810 811 810 809 809 809 813 809 804 801 799 797 796 793 794 794 792 793 797 803 804 805 809 809 814 816 814 819 824 827 828 826
837 833 830 826 823 818 815 813 811 809 809 808 809 811 812 811 811 811 815 811 808 805 803 799 795 793 793 795 795 792 794 804 802 803 806 813 812 816 815 816 818 823 827 828 826
839 835 831 827 823 819 816 814 812 810 809 809 810 811 813 813 811 815 814 811 809 807 805 803 800 796 798 796 800 799 802 806 810 810 811 816 818 820 817 816 827 831 830 828 826
840 836 832 827 824 820 817 815 813 811 810 810 811 813 814 815 819 818 815 813 810 809 807 804 799 799 801 803 801 811 808 808 814 818 817 817 820 824 827 832 833 833 831 829 828
841 836 832 827 824 820 817 815 814 813 812 813 814 815 816 813 820 820 816 814 812 810 809 806 802 802 805 805 802 807 813 814 816 821 820 822 822 822 828 832 831 830 830 830 830
841 837 832 827 824 819 817 817 816 815 815 816 816 817 817 819 823 821 817 816 814 813 811 809 809 806 808 811 810 811 813 817 819 820 821 822 823 828 826 830 829 828 829 831 831
841 837 832 828 824 818 817 818 818 817 817 817 817 817 816 825 824 821 819 818 817 816 814 815 814 810 810 815 816 815 819 819 818 819 818 823 821 823 824 828 826 828 830 832 834
842 837 833 829 824 819 818 819 819 818 818 818 818 818 822 824 823 822 820 819 819 818 818 817 816 814 814 816 816 815 814 811 810 817 820 825 813 811 824 826 826 830 832 833 835
842 837 833 828 825 821 820 820 820 819 819 819 820 819 824 824 824 823 822 821 819 819 818 817 816 816 816 814 812 813 814 809 808 813 816 825 810 812 823 826 827 830 832 834 835
842 838 833 829 825 823 822 822 821 821 821 820 821 822 825 828 826 824 822 821 819 818 817 815 813 809 808 813 822 822 818 811 813 813 819 817 811 805 818 825 826 828 831 833 834
841 838 834 830 827 824 824 823 824 824 825 830 831 828 828 829 827 825 823 821 818 814 818 816 816 826 827 825 826 825 821 814 803 811 821 810 802 797 807 822 825 826 829 833 837
842 838 835 831 828 825 825 827 834 835 832 833 832 831 832 831 827 824 823 819 817 822 816 817 828 829 828 828 827 820 815 808 808 814 818 805 799 793 795 815 820 831 831 833 836
842 838 834 831 829 828 829 833 833 834 826 833 833 832 833 832 830 829 827 824 824 823 824 822 829 829 829 825 825 815 819 820 823 814 802 805 784 795 803 812 824 832 834 834 835
842 838 834 831 833 831 834 834 833 834 825 837 832 834 833 832 832 833 832 832 824 830 828 826 829 831 827 825 829 822 823 825 824 822 812 810 802 789 804 814 820 823 828 832 834
842 838 835 831 834 835 838 834 834 836 851 838 836 834 833 834 836 833 834 828 833 833 831 830 830 831 826 831 831 824 821 824 826 823 817 811 814 787 800 803 806 813 822 828 833
842 839 836 836 836 838 836 835 837 835 865 842 838 839 834 835 836 833 832 832 833 833 828 832 834 834 831 830 831 826 817 807 819 820 819 807 812 790 787 796 795 804 818 828 833
843 840 838 837 839 837 836 837 832 838 842 845 847 844 844 843 839 840 841 840 842 840 833 823 829 833 835 828 827 821 817 815 815 814 805 813 817 790 794 802 805 802 814 823 829
843 841 840 839 837 836 837 831 840 848 845 848 849 845 845 847 843 840 836 837 840 841 837 840 838 833 835 836 838 831 831 830 834 816 810 802 808 787 805 810 810 806 813 821 826
843 842 842 839 836 836 834 838 846 846 851 850 844 843 840 843 847 838 842 844 848 846 848 843 831 833 837 837 838 829 828 836 835 817 831 799 787 810 806 807 810 809 813 817 820
845 844 842 839 837 837 827 848 849 852 852 851 846 848 845 843 843 839 842 848 849 850 848 844 848 833 835 840 840 837 835 833 828 827 821 789 785 784 787 791 800 804 807 810 816
846 841 841 838 837 831 840 849 852 854 856 853 849 848 847 849 848 843 843 847 848 849 850 850 852 833 831 833 834 836 831 833 831 828 822 806 784 773 779 783 789 794 798 802 808
846 840 841 839 834 837 842 850 857 853 855 854 854 853 851 850 848 848 847 844 847 848 847 851 850 847 828 826 836 836 832 828 830 823 821 820 806 777 780 785 788 788 790 796 801
844 841 841 839 835 841 852 854 854 855 854 855 854 855 854 853 853 847 846 847 848 849 847 851 848 847 820 836 839 835 830 832 828 831 828 819 789 777 785 789 788 790 787 789 798
847 841 840 841 846 841 847 850 853 857 854 855 854 855 855 851 847 846 845 842 849 849 854 853 850 843 836 824 828 830 824 825 830 831 814 800 784 774 769 772 774 775 782 788 793
851 847 853 842 847 847 849 851 851 852 855 854 853 853 851 850 848 847 844 845 842 851 852 851 850 844 837 834 831 827 821 823 822 814 818 790 793 776 775 776 778 785 787 785 792
849 849 855 852 855 850 856 849 849 850 852 851 854 848 850 852 846 847 841 841 841 846 850 855 848 848 846 830 827 825 810 812 812 808 806 794 789 780 783 786 786 787 791 793 793
853 852 849 858 853 851 842 844 847 850 846 846 848 849 848 847 844 843 840 839 837 838 847 855 855 855 837 830 835 822 795 796 796 795 794 795 778 778 782 787 791 797 797 796 797
Wind_Speed
27 24 16 20 20 22 15 10 8 6 4 4 3 3 5 9 9 6 12 11 13 18 13 6 1 1 2 4 3 2 2 3 2 4 5 3 3 3 0 2 6 5 5 13 20
27 26 19 17 22 22 13 10 8 7 5 1 5 6 9 5 4 15 13 16 15 15 9 8 6 3 3 2 2 4 2 2 3 4 3 2 1 2 3 1 4 8 12 16 17
28 28 26 16 20 22 12 10 9 7 4 1 6 8 9 4 4 8 17 16 14 13 6 6 5 5 5 4 4 4 3 6 4 6 3 3 3 2 4 3 8 12 14 17 17
28 30 28 17 20 22 11 10 9 6 4 5 7 6 6 3 3 10 18 15 12 12 6 7 4 2 3 4 2 5 4 2 4 3 1 2 3 1 6 6 7 9 11 15 15
27 29 30 18 21 22 10 8 8 7 7 8 8 8 2 3 6 12 15 13 8 7 11 7 7 4 3 3 4 6 4 3 4 2 0 2 1 4 1 3 4 7 10 11 12
27 29 30 20 23 23 6 7 7 8 8 8 6 2 3 4 6 11 11 10 12 10 11 13 6 7 4 4 6 2 3 5 4 3 2 5 3 2 5 2 2 5 9 11 13
26 28 29 24 24 20 6 7 7 7 7 5 6 5 11 5 5 9 10 8 9 9 6 9 6 6 4 2 2 4 4 4 7 5 3 5 10 9 5 4 3 6 8 10 13
26 26 28 26 24 12 6 6 6 5 5 4 2 1 5 3 3 9 11 4 6 6 5 4 5 4 5 3 2 4 5 6 8 5 4 3 12 7 6 4 2 5 7 8 9
24 24 26 25 22 8 5 6 6 6 4 2 2 4 4 3 4 9 10 6 5 3 4 2 1 2 3 4 5 4 8 11 4 6 3 8 11 8 4 3 2 2 5 7 10
23 23 25 23 19 6 6 7 5 4 3 2 1 3 4 5 6 9 9 5 3 4 3 2 2 3 6 8 5 10 11 11 10 2 7 12 17 16 9 4 3 2 2 4 7
22 22 23 20 14 9 2 3 3 4 12 6 4 3 3 7 3 10 7 5 2 1 4 3 3 7 8 6 6 8 11 13 8 5 6 13 16 13 10 6 7 3 2 4 6
21 21 21 16 11 11 4 4 4 3 6 3 2 2 2 4 2 13 13 4 4 5 4 4 7 5 4 4 7 10 13 9 4 1 8 14 20 18 8 8 6 3 2 3 6
23 21 19 12 7 11 11 5 2 3 2 3 3 3 3 5 3 10 12 4 5 6 6 4 4 2 4 6 10 12 7 11 11 16 14 11 9 5 5 6 5 4 1 1 5
22 20 17 8 3 5 5 6 1 2 3 5 3 3 2 3 1 4 7 4 1 5 5 3 2 3 5 4 8 10 6 9 13 11 4 4 7 4 8 7 8 8 5 2 1
19 18 13 12 2 4 6 3 0 2 1 5 3 3 4 4 7 5 2 3 5 5 5 4 4 4 5 5 5 6 14 12 9 8 8 6 4 4 3 4 10 10 7 5 3
20 15 9 5 6 6 5 2 1 3 2 2 3 7 3 5 4 8 4 3 1 2 1 3 1 2 4 7 5 13 13 11 4 4 3 4 3 6 2 2 1 10 9 6 4
19 9 8 7 3 8 2 3 2 2 2 4 4 6 5 6 4 8 6 9 6 6 7 6 1 1 3 10 5 11 13 3 3 2 4 3 5 6 4 2 3 8 10 9 7
15 5 4 5 10 4 1 3 1 1 3 2 3 4 3 7 3 6 4 4 8 6 7 5 2 3 5 3 6 7 6 4 5 6 10 7 4 1 3 1 1 3 8 9 8
11 3 2 8 9 1 4 3 3 2 2 5 3 3 1 2 3 6 4 3 5 8 6 5 2 2 1 2 3 3 3 2 5 7 4 5 7 5 3 5 6 9 11 12 11
7 4 1 15 5 2 1 3 1 1 2 2 3 1 3 5 5 5 2 2 1 2 4 4 7 2 1 2 1 3 4 3 3 5 7 7 10 7 8 8 11 13 14 13 12
2 3 3 11 2 2 3 3 2 1 2 3 2 3 2 4 4 4 2 3 1 1 3 4 2 2 4 3 4 3 3 4 3 4 4 6 6 3 4 5 8 11 12 14 14
2 3 5 4 1 2 2 2 1 2 1 1 3 2 3 3 4 3 3 1 2 1 4 3 5 6 13 2 1 4 6 7 3 3 7 8 9 3 2 3 4 7 8 11 13
3 2 4 2 1 3 3 2 1 2 2 1 2 2 1 2 4 3 3 1 4 2 2 1 3 6 2 3 2 3 4 8 9 8 14 9 7 3 2 5 8 10 10 8 11
3 2 2 2 1 1 3 2 2 1 2 2 2 3 3 5 6 4 5 2 3 5 2 3 5 8 10 13 13 19 19 11 11 9 14 18 24 22 20 15 14 14 7 8 10
2 1 3 1 2 2 1 1 3 3 3 3 3 9 5 4 5 6 6 6 6 2 4 4 6 11 18 18 19 22 24 19 20 22 17 23 21 23 20 20 14 8 8 7 9
3 2 2 2 2 4 2 6 6 3 4 4 6 3 7 7 8 14 14 14 11 6 5 3 4 3 8 16 15 19 22 17 19 20 22 25 26 21 8 8 8 10 9 8 7
1 1 3 3 3 3 3 4 6 3 6 6 5 6 9 11 9 12 14 15 16 12 6 4 3 2 6 4 6 15 16 11 8 10 10 13 15 9 13 13 10 9 8 7 7
Wind_Direction
22 21 17 9 4 356 354 355 348 342 317 267 221 155 117 83 58 45 39 337 330 338 345 310 319 331 82 82 25 304 232 151 135 192 115 133 222 78 75 29 61 43 5 333 329
21 18 10 1 5 2 1 11 5 354 343 294 190 162 153 68 32 48 357 347 342 344 349 351 31 30 75 57 20 321 281 63 21 53 117 109 322 46 243 187 42 342 350 341 336
19 15 10 4 2 3 5 1 1 2 3 3 166 166 176 336 281 21 350 350 345 346 321 330 322 332 47 43 8 4 64 123 71 76 73 110 125 12 310 172 19 343 342 343 342
16 14 10 10 5 1 8 5 13 22 51 110 139 147 177 291 5 358 348 354 357 1 342 326 287 334 25 47 50 108 71 43 118 77 96 189 99 87 28 22 356 352 346 347 353
13 12 11 12 8 1 6 21 36 58 87 108 119 124 123 110 38 346 354 358 4 10 18 354 19 352 23 67 68 89 121 96 109 142 243 151 239 332 88 10 330 343 2 4 4
8 8 10 6 5 357 28 48 64 76 90 107 116 106 289 80 348 351 356 10 19 25 29 32 28 11 59 31 351 53 142 130 169 178 199 257 233 263 162 288 317 346 15 16 13
4 5 6 6 2 1 79 73 80 82 92 109 116 92 65 68 357 358 0 11 18 23 29 30 13 350 326 107 33 130 168 207 209 207 252 274 246 229 153 222 292 6 16 19 16
0 2 3 5 4 21 84 84 92 92 109 101 78 315 67 350 352 360 2 360 22 34 52 29 20 57 2 102 158 269 262 285 124 192 160 245 290 144 183 233 299 354 9 13 16
357 359 360 5 7 37 64 100 102 86 85 77 8 285 74 355 2 351 360 348 333 32 44 30 360 55 187 286 229 179 329 329 327 200 258 223 293 157 181 242 284 353 10 8 353
356 357 358 2 8 37 87 93 83 57 8 355 16 169 63 355 329 338 347 345 332 309 226 251 238 268 19 5 14 327 328 323 315 114 245 265 262 273 189 232 260 284 5 3 356
353 356 356 359 8 18 162 311 217 134 41 41 25 44 12 335 345 7 352 327 292 243 353 28 27 25 9 7 338 318 312 310 319 39 286 267 278 282 179 194 232 241 316 11 358
354 353 353 357 16 26 58 52 35 7 93 46 27 63 1 341 309 19 354 337 2 17 332 211 55 26 343 317 312 300 308 334 338 347 292 292 295 287 201 206 234 233 274 3 3
351 351 356 0 25 39 69 64 52 356 258 82 44 15 354 335 31 358 356 332 360 13 9 21 51 349 324 326 334 329 323 334 311 315 280 304 279 116 136 185 196 208 228 8 19
349 352 359 9 70 26 48 349 5 12 215 25 29 49 327 321 194 358 4 334 23 358 349 24 39 341 335 340 340 318 350 317 307 319 332 17 311 148 160 213 215 206 205 175 61
348 352 1 36 35 37 328 335 111 292 317 23 18 332 338 17 328 56 350 289 11 358 312 46 347 342 325 339 323 299 327 308 308 290 306 153 266 93 141 229 219 211 190 178 149
350 355 12 23 48 3 352 111 289 218 276 34 335 357 331 28 24 338 4 67 335 296 237 11 15 296 332 309 270 300 299 281 270 282 257 105 347 288 48 359 346 187 178 176 168
350 4 40 44 5 338 16 234 223 3 154 23 352 353 343 359 15 8 12 40 28 343 1 314 180 103 324 311 195 332 337 323 299 288 313 145 286 289 71 15 321 195 186 183 175
348 2 5 10 344 341 208 228 32 49 25 42 323 308 357 0 68 351 335 44 46 358 298 335 308 356 13 355 319 332 340 1 315 330 313 223 253 48 92 99 269 183 180 187 190
344 331 314 331 341 32 250 48 35 38 16 332 267 283 114 50 312 329 37 29 35 12 3 335 292 131 26 327 323 15 332 2 282 269 272 266 263 149 170 207 204 197 199 207 201
344 299 318 338 341 270 300 80 101 32 321 270 340 331 321 359 318 343 354 73 80 13 339 12 294 98 47 258 169 299 347 264 200 303 311 274 299 260 215 222 212 218 218 217 208
328 272 335 347 353 252 49 64 118 123 315 311 335 298 310 326 315 324 356 131 205 31 314 322 266 296 258 202 332 239 232 230 284 248 286 300 281 17 264 248 231 232 227 221 210
309 272 340 348 266 28 69 42 32 176 209 274 296 301 298 323 295 300 298 306 128 306 314 50 305 286 286 30 194 252 264 267 269 232 237 273 275 209 270 263 254 257 243 227 215
299 307 334 352 284 105 131 148 266 208 239 247 254 256 279 277 287 246 272 149 194 236 316 94 209 298 180 150 162 236 232 262 285 289 256 263 270 99 155 220 239 252 266 239 215
284 249 97 67 45 125 171 180 199 163 243 251 271 230 238 247 224 272 260 215 203 233 98 185 238 234 266 294 314 290 274 245 248 267 259 246 269 284 297 312 315 320 284 251 213
331 92 357 174 120 120 222 172 205 223 223 219 219 234 229 270 250 245 268 266 241 183 209 234 257 247 261 277 283 280 279 272 255 251 258 274 282 287 304 316 330 339 329 289 219
290 223 188 120 159 199 179 202 216 199 226 207 242 260 238 256 268 301 297 291 281 177 220 194 270 300 276 274 274 282 271 267 262 264 260 264 275 288 346 342 327 337 335 305 236
203 221 288 129 202 222 220 203 201 176 215 248 252 271 262 274 293 282 284 282 270 262 208 204 236 278 276 334 324 281 277 237 225 230 247 263 268 338 323 333 329 325 318 302 274